Погода в Комрате

Погода в Комрате : погода сейчас, прогноз погоды и архив. Всё, что Вы хотите узнать о погоде в Комрате!

Поиск расширенной информации на нашем сайте:

Другие новости

Новости СМИ2

Главная страница сайта

Новости сайта

02.10.2013

Напоминаем, что на нашем новом сайте вы можете получить высокодетализированные прогнозы погоды по пунктам России, СНГ и мира (включающие важные для авиации метеовеличины, такие как направление и скорость ветра, видимость, явления погоды, количество и форма облачности, нижняя и верхняя граница облачности), а также ознакомиться с разнообразными материалами по авиационной метеорологии и подборкой полезных ссылок на эту тему.

Сайт Метеоцентр.Азия посвящён разработке технологий оптимизации авиаметеорологического обслуживания, включая проектирование и перспективное создание нескольких автоматизированных авиаметеорологических систем:
- система выпуска высокодетальных прогностических карт явлений погоды для нижнего воздушного пространства по России и ближнему зарубежью;
- система верификации прогнозов TAF (выпускаемых синоптиками официальных АМСГ РФ и ближнего зарубежья) и AUTOTAF (выпускаемых сайтом Метеоцентр.Азия) - выявление ошибок, онлайн-сопоставление с фактической погодой METAR, автоматическое внесение коррективов в прогнозы при резком отклонении фактической погоды от прогноза, подсчёт оправдываемости прогнозов по элементам и в целом;
- система обработки, анализа и отображения авиаметеорологической информации для применения провайдерами метеорологической информации.

Рекомендуем: Важные правила бессолевой диеты для беременных.

Погода в Комрате - сегодня

Время (UTC), дата Ветер
(°,м/с) 
Видим.   Явления Облачность Т
(°С)
Тd
(°С)
f(%) Тe
(°С)
Pmin
(гПа)
dP
(гПа)
Po
(мм)
O2
(г/м3)
Тmin Tmax R s Состояние
почвы
03 21.02.17 тихо ()   0500 м  туман  ?/?  
-1 -1 100 -1  1013  -1.4  747  302           
06 21.02.17 210 (ЮЗ) 10 км  {туман}  3/0 верхняя 
[Ci sp]
-1.7 -1.7 100 -1  1011.9  -1.1  746  303  -2.3    0.6  мокрый или
старый снег
50-90% 
09 21.02.17 210 (ЮЗ) 20000 м    8/0 верхняя 
[Cs]
+3.5 -1.6 69 +3  1010.7  -0.9  745  297           
12 21.02.17 220 (ЮЗ) 20000 м    8/0 верхняя 
[Cs]
+4.8 -0.2 70 +4  1008.7  -1.9  744  295           
15 21.02.17 210 (ЮЗ) 20000 м    9/6 600 м кучево-дожд., средняя 
[Cb calv|Ac trans]
+4.3 -0.5 71 +4  1007.8  -0.9  743  295           
18 21.02.17 240 (ЮЗ) 10 км  {ливн. осадки}  10/0 средняя 
[As op]
+3.7 +0 77 +5  1008.1  0.3  744  296    +4.9  0.0     
21 21.02.17 240 (ЮЗ) 10 км  в посл. час дождь  10/0 средняя 
[As op]
+3.5 +0.5 81 +2  1007.5  -0.6  743  296           
00 22.02.17 230 (ЮЗ) 10 км  {дождь}  10/0 средняя 
[As op]
+3.8 +0.5 79 +3  1007.4  -0.1  743  295           
03 22.02.17 320 (СЗ) 10 км  слаб. дождь  10/0 средняя 
[As op]
+3.3 +1 85 +1  1009.3  1.8  744  296           
06 22.02.17 300 (СЗ) 20000 м  {дождь}  ясно 
+3.7 +0 77 +3  1010.8  1.5  746  296  +2.5    0.9  мокрый или
старый снег
10-40% 
09 22.02.17 310 (СЗ) 8{12}  20000 м    ясно 
+6.5 -2.1 54 +4  1011.7  1.1  746  294           
12 22.02.17 310 (СЗ) 3{18}  20000 м    ясно 
+7.1 -1.6 54 +6  1012  0.3  747  293           
15 22.02.17 160 (Ю) 20000 м    ясно 
+7.4 -0.3 58 +7  1011  -0.9  746  293           
18 22.02.17 200 (Ю) 10 км    3/0 верхняя 
[Ci fib]
+4.3 +1.2 80 +3  1010.2  -1  745  295    +9.2       
21 22.02.17 210 (ЮЗ) 10 км    10/10 600 м 
[Sc]
+4.7 +1.9 82 +4  1008.7  -1.5  744  294           
00 23.02.17 200 (Ю) 10 км    8/0 средняя 
[Ac trans]
+3.8 +1.5 85 +3  1006.7  -2  743  295           
03 23.02.17 200 (Ю) 10 км    8/0 средняя 
[Ac trans]
+4.4 +1.3 80 +3  1004.6  -2  741  294           
06 23.02.17 140 (ЮВ) 20000 м    8/8 600 м верхняя 
[Sc|Ci sp]
+5.9 +1.4 73 +7  1004.5  741  292  +3.1      <0.5  мокрый или
старый снег
10-40% 
09 23.02.17 230 (ЮЗ) 20000 м    8/0 верхняя 
[Ci sp]
+12.5 +4.2 57 +12  1004.7  0.6  741  285           
12 23.02.17 240 (ЮЗ) 20000 м    8/4 600 м средняя, верхняя 
[Sc|Ac trans|Ci sp]
+14.1 +4.9 54 +13  1004.8  0.2  742  283           
15 23.02.17 240 (ЮЗ) 20000 м    6/0 верхняя 
[Ci sp]
+13.4 +4.8 56 +13  1005.9  742  284           
18 23.02.17 тихо ()   10 км    6/0 верхняя 
[Ci sp]
+7.9 +3.6 74 +8  1007.6  1.4  743  291    +14.9       
21 23.02.17 190 (Ю) 10 км    ясно 
+5.3 +2.5 82 +6  1007.5  -0.3  743  293           
00 24.02.17 200 (Ю) 10 км    ясно 
+6.6 +2.5 75 +6  1006.9  -0.5  743  292           
03 24.02.17 180 (Ю) 10 км    ясно 
+6.1 +1.4 72 +7  1004.9  -2  741  292           
Время (UTC), дата Ветер
(°,м/с) 
Видим.   Явления Облачность Т
(°С)
Тd
(°С)
f(%) Тe
(°С)
Pmin
(гПа)
dP
(гПа)
Po
(мм)
O2
(г/м3)
Тmin Tmax R s Состояние
почвы

Для получения пояснительной информации подведите курсор к названию столбца.

ПОГОДА в Комрате - архив

Всё, что Вы хотите узнать о погоде в Комрате - удобно и подробно!

Выберите нужную дату (начиная с 1 января 2015* года) и нажмите кнопку "Найти".
Будут отображены архивные сводки погоды по пункту Комрат, начиная с указанной даты.


Отображать данные в формате CSV (для использования в таблицах Excel)


Внимание! Наш архив погоды предназначен исключительно для личного некоммерческого использования в познавательных целях. Если Вам необходимы официальные справки о состоянии погоды (для производственных, юридических, коммерческих и т.п. целей), обращайтесь в органы Росгидромета.

*Примечание: данная дата относится к архиву по метеостанциям СССР (Россия, СНГ, Балтия).
Архив по метеостанциям Зарубежной Европы и Азии (кроме Китая) хранится 10 дней, по другим регионам земного шара (Китай, Африка, Америка, Австралия, Океания) - 1 день.

Комрат - район местоположения метеостанции


Название, широта, долгота, высота метеостанции:
Комрат 46.3°ш. 28.6°д. 133 м над ур. моря [Молдавия]

Дополнительная информация

В oтличие oт бoльшинства пoгoдных сайтoв мы публикуем пoдрoбную метеoинфoрмацию в детальнoм прoфессиoнальнoм фoрмате.

Характеристики температуры и влажнoсти вoздуха измеряются на высoте 2 м в тени вдали oт зданий и деревьев.
Скoрoсть ветра измеряется на высoте 10 м (на урoвне рoста челoвека скoрoсть ветра ниже в 1.5-2 раза). Если метеoстанция нахoдится в гoрoде или в лесу, тo скoрoсть ветра занижена на 2-4 м/с пo сравнению с oткрытым местoм. Скoрoсть ветра над акватoриями крупных рек и oзёр, а также на вершинах хoлмoв на 2-5 м/с выше, чем в oбычных услoвиях.
Атмoсфернoе давление в разных тoчках местнoсти мoжет значительнo oтличаться oт давления на метеoстанции, в зависимoсти oт услoвий рельефа (при пoдъёме на 10 м давление пoнижается примернo на 1 мм рт.ст.).